FW9140 Weather Reports


time (UTC)temp
F
wind
direction
speed
knots
gust
knots
rain 1hr
in
rain 24hr
in
rain mn
in
humidity
%
barometer
mb
20260503230614 76 251 4.3 5.2 0.00 0.00 0.00 34 1015.0
20260503230110 76 275 0.9 1.7 0.00 0.00 0.00 34 1014.7
20260503225608 76 268 2.6 4.3 0.00 0.00 0.00 34 1014.9
20260503225108 75 249 3.5 6.1 0.00 0.00 0.00 35 1015.1
20260503224606 75 243 2.6 6.1 0.00 0.00 0.00 35 1015.2
20260503224103 75 258 3.5 7.0 0.00 0.00 0.00 36 1015.0
20260503223601 75 280 5.2 7.0 0.00 0.00 0.00 35 1015.4
20260503223056 75 261 2.6 4.3 0.00 0.00 0.00 38 1015.3
20260503222555 75 261 2.6 4.3 0.00 0.00 0.00 38 1015.3
20260503222052 75 261 2.6 4.3 0.00 0.00 0.00 38 1015.7
20260503221550 74 234 3.5 6.1 0.00 0.00 0.00 38 1015.6
20260503221047 74 234 3.5 6.1 0.00 0.00 0.00 38 1015.7
20260503220543 73 273 6.1 7.0 0.00 0.00 0.00 38 1015.9
20260503220041 73 273 2.6 2.6 0.00 0.00 0.00 40 1016.0
20260503215538 73 287 4.3 7.0 0.00 0.00 0.00 40 1016.0
20260503215034 73 252 4.3 5.2 0.00 0.00 0.00 41 1016.1
20260503214533 72 216 2.6 4.3 0.00 0.00 0.00 42 1016.1
20260503214029 72 216 2.6 4.3 0.00 0.00 0.00 42 1016.1
20260503213527 72 255 3.5 4.3 0.00 0.00 0.00 43 1016.4
20260503213024 72 290 3.5 7.0 0.00 0.00 0.00 42 1016.2
20260503212521 72 278 4.3 5.2 0.00 0.00 0.00 42 1016.1
20260503212019 71 260 4.3 6.1 0.00 0.00 0.00 43 1016.3
20260503211516 72 268 6.1 7.8 0.00 0.00 0.00 43 1016.6
20260503211011 71 279 2.6 6.1 0.00 0.00 0.00 45 1016.5
20260503210508 71 255 2.6 5.2 0.00 0.00 0.00 45 1016.3
20260503210004 71 253 3.5 6.1 0.00 0.00 0.00 45 1016.5
20260503205500 73 269 7.8 9.6 0.00 0.00 0.00 42 1016.3
20260503204956 73 269 7.8 9.6 0.00 0.00 0.00 42 1016.6
20260503204454 73 269 7.8 9.6 0.00 0.00 0.00 42 1016.3
20260503203950 73 269 7.8 9.6 0.00 0.00 0.00 42 1016.6
20260503203448 73 269 7.8 9.6 0.00 0.00 0.00 42 1016.5
20260503202944 73 269 7.8 9.6 0.00 0.00 0.00 42 1016.7
20260503202443 71 250 1.7 1.7 0.00 0.00 0.00 44 1016.6
20260503201941 71 249 5.2 7.0 0.00 0.00 0.00 42 1016.8
20260503201438 71 262 3.5 4.3 0.00 0.00 0.00 44 1016.5
20260503200935 72 288 3.5 5.2 0.00 0.00 0.00 42 1016.6
20260503200432 72 278 7.0 8.7 0.00 0.00 0.00 42 1016.8
20260503195928 71 257 2.6 2.6 0.00 0.00 0.00 43 1016.9
20260503195426 71 257 2.6 2.6 0.00 0.00 0.00 43 1016.7
20260503194922 71 250 3.5 5.2 0.00 0.00 0.00 43 1017.0
20260503194419 71 250 3.5 5.2 0.00 0.00 0.00 43 1017.0
20260503193914 71 250 3.5 5.2 0.00 0.00 0.00 43 1017.1
20260503193410 71 250 3.5 5.2 0.00 0.00 0.00 43 1017.2
20260503192906 71 250 3.5 5.2 0.00 0.00 0.00 43 1017.1
20260503192402 71 250 3.5 5.2 0.00 0.00 0.00 43 1017.2
20260503191858 72 242 1.7 2.6 0.00 0.00 0.00 44 1017.2
20260503191356 72 242 1.7 2.6 0.00 0.00 0.00 44 1017.6
20260503190852 72 242 1.7 2.6 0.00 0.00 0.00 44 1017.5
20260503190349 71 280 3.5 5.2 0.00 0.00 0.00 43 1017.4
20260503185846 71 280 3.5 5.2 0.00 0.00 0.00 43 1017.6
20260503185342 71 280 3.5 5.2 0.00 0.00 0.00 43 1017.6
20260503184837 71 256 3.5 6.1 0.00 0.00 0.00 43 1017.7
20260503184333 70 251 2.6 6.1 0.00 0.00 0.00 44 1017.6
20260503183829 71 265 2.6 6.1 0.00 0.00 0.00 42 1017.6
20260503183326 72 276 2.6 4.3 0.00 0.00 0.00 43 1017.8
20260503182824 72 283 0.9 0.9 0.00 0.00 0.00 41 1017.7
20260503182323 71 294 1.7 1.7 0.00 0.00 0.00 41 1018.0
20260503181819 70 254 2.6 2.6 0.00 0.00 0.00 43 1018.0
20260503181316 70 316 2.6 6.1 0.00 0.00 0.00 42 1017.8
20260503180813 71 252 0.9 1.7 0.00 0.00 0.00 43 1018.0
20260503180311 70 321 2.6 2.6 0.00 0.00 0.00 44 1018.1
20260503175807 70 343 3.5 4.3 0.00 0.00 0.00 45 1018.2
20260503175305 69 248 2.6 2.6 0.00 0.00 0.00 45 1018.2
20260503174800 70 251 2.6 4.3 0.00 0.00 0.00 45 1018.3
20260503174259 71 283 0.0 4.3 0.00 0.00 0.00 44 1018.5
20260503173754 70 296 0.0 0.9 0.00 0.00 0.00 45 1018.3
20260503173250 69 241 3.5 4.3 0.00 0.00 0.00 46 1018.5
20260503172747 72 241 2.6 2.6 0.00 0.00 0.00 44 1018.4
20260503172244 70 264 0.0 4.3 0.00 0.00 0.00 44 1018.3
20260503171740 71 291 2.6 5.2 0.00 0.00 0.00 43 1018.4
20260503171238 70 135 1.7 2.6 0.00 0.00 0.00 45 1018.5
20260503170735 70 268 1.7 2.6 0.00 0.00 0.00 45 1018.6
20260503170231 71 284 0.9 0.9 0.00 0.00 0.00 47 1018.5
20260503160153 71 267 0.9 0.9 0.00 0.00 0.00 52 1018.9
20260503150623 61 296 0.9 2.6 0.00 0.00 0.00 68 1019.0
20260503150119 60 322 0.0 1.7 0.00 0.00 0.00 73 1018.9
20260503131013 50 92 2.6 2.6 0.00 0.00 0.00 85 1018.2
20260503130510 50 297 0.9 1.7 0.00 0.00 0.00 86 1018.3
20260503110401 52 264 0.0 0.0 0.00 0.00 0.00 80 1018.4
20260503090252 55 160 0.9 1.7 0.00 0.00 0.00 75 1018.1
20260503081220 55 239 0.9 1.7 0.00 0.00 0.00 75 1018.1
20260503080715 55 233 0.9 0.9 0.00 0.00 0.00 76 1018.0
20260503080213 55 296 0.9 0.9 0.00 0.00 0.00 75 1018.0
20260503072649 54 315 0.9 0.9 0.00 0.00 0.00 80 1017.9
20260503072146 54 286 0.0 0.9 0.00 0.00 0.00 80 1018.1
20260503071643 54 310 0.9 1.7 0.00 0.00 0.00 80 1017.9
20260503071139 54 303 0.0 0.9 0.00 0.00 0.00 82 1018.0
20260503070636 54 283 0.0 0.0 0.00 0.00 0.00 82 1017.9
20260503070135 54 284 0.0 0.9 0.00 0.00 0.00 81 1018.0
20260503055049 54 284 0.0 0.9 0.00 0.00 0.00 82 1017.9
20260503054545 54 284 0.0 0.0 0.00 0.00 0.00 83 1017.9
20260503054043 54 284 0.0 0.0 0.00 0.00 0.00 82 1018.0
20260503053541 55 285 0.0 0.0 0.00 0.00 0.00 82 1018.2
20260503053038 55 292 0.0 0.9 0.00 0.00 0.00 81 1017.8
20260503052535 55 286 0.0 0.9 0.00 0.00 0.00 81 1018.1
20260503052031 55 269 0.0 0.0 0.00 0.00 0.00 81 1018.1
20260503051527 55 270 0.0 0.0 0.00 0.00 0.00 80 1018.2
20260503051025 55 262 0.0 0.0 0.00 0.00 0.00 79 1018.1
20260503050520 56 261 0.0 0.0 0.00 0.00 0.00 78 1018.2
20260503050018 56 260 0.0 0.0 0.00 0.00 0.00 78 1018.1
20260503045515 56 261 0.0 0.0 0.00 0.00 0.00 77 1018.0
20260503045012 57 260 0.0 0.0 0.00 0.00 0.00 76 1018.1
20260503044509 57 260 0.0 0.0 0.00 0.00 0.00 75 1018.1
20260503044006 57 261 0.0 0.0 0.00 0.00 0.00 75 1018.1
20260503043502 57 260 0.0 0.0 0.00 0.00 0.00 75 1017.9
20260503042959 57 267 0.0 0.9 0.00 0.00 0.00 74 1017.9
20260503042455 58 274 0.0 0.9 0.00 0.00 0.00 73 1017.9
20260503041952 59 266 0.0 4.3 0.00 0.00 0.00 73 1017.9
20260503041449 60 289 3.5 5.2 0.00 0.00 0.00 70 1017.9
20260503040947 62 258 0.9 1.7 0.00 0.00 0.00 64 1017.8
20260503040444 62 247 0.9 0.9 0.00 0.00 0.00 64 1017.5
20260503035941 62 291 0.0 0.9 0.00 0.00 0.00 63 1017.4
20260503035438 63 271 0.0 1.7 0.00 0.00 0.00 62 1017.4
20260503034936 62 351 0.9 1.7 0.00 0.00 0.00 63 1017.3
20260503034433 62 74 0.9 1.7 0.00 0.00 0.00 64 1017.3
20260503033929 62 249 0.0 0.9 0.00 0.00 0.00 64 1017.1
20260503033427 62 283 0.9 1.7 0.00 0.00 0.00 63 1017.0
20260503032925 62 318 0.9 1.7 0.00 0.00 0.00 63 1017.2
20260503032423 63 317 0.9 0.9 0.00 0.00 0.00 61 1017.0
20260503031920 63 282 0.0 0.9 0.00 0.00 0.00 60 1017.0
20260503031418 64 263 0.9 0.9 0.00 0.00 0.00 59 1017.0
20260503030914 64 291 0.0 0.9 0.00 0.00 0.00 58 1016.8
20260503030411 64 284 0.0 0.0 0.00 0.00 0.00 57 1016.9
20260503025908 65 284 0.0 0.9 0.00 0.00 0.00 55 1016.8
20260503025405 66 283 0.9 0.9 0.00 0.00 0.00 52 1016.8
20260503024902 66 282 0.0 0.0 0.00 0.00 0.00 54 1017.0
20260503024359 67 278 0.0 0.9 0.00 0.00 0.00 51 1016.9
20260503023856 68 290 0.9 0.9 0.00 0.00 0.00 49 1016.9
20260503023353 68 280 0.0 0.9 0.00 0.00 0.00 48 1016.9
20260503022849 68 240 0.9 0.9 0.00 0.00 0.00 47 1017.0
20260503022344 69 292 0.0 0.9 0.00 0.00 0.00 47 1016.9
20260503021841 69 258 0.0 0.9 0.00 0.00 0.00 49 1017.0
20260503021337 70 251 0.9 1.7 0.00 0.00 0.00 44 1016.9
20260503020834 72 252 0.9 0.9 0.00 0.00 0.00 42 1017.0
20260503020332 72 272 0.0 0.0 0.00 0.00 0.00 42 1017.0
20260503015828 73 234 0.0 0.9 0.00 0.00 0.00 42 1016.9
20260503015325 74 269 0.0 0.9 0.00 0.00 0.00 42 1017.1
20260503014821 75 237 0.9 0.9 0.00 0.00 0.00 38 1017.0
20260503014319 75 207 1.7 1.7 0.00 0.00 0.00 35 1017.2
20260503013816 75 213 1.7 2.6 0.00 0.00 0.00 35 1017.2
20260503013313 75 226 0.0 0.0 0.00 0.00 0.00 35 1017.4
20260503012810 76 226 0.9 0.9 0.00 0.00 0.00 36 1017.2
20260503012308 76 226 0.9 1.7 0.00 0.00 0.00 35 1017.4
20260503011804 76 216 0.9 0.9 0.00 0.00 0.00 33 1017.4
20260503011301 76 241 0.0 0.9 0.00 0.00 0.00 36 1017.4
20260503010758 77 255 0.9 2.6 0.00 0.00 0.00 36 1017.3
20260503010255 77 187 2.6 2.6 0.00 0.00 0.00 31 1017.5
20260503005752 78 229 0.9 0.9 0.00 0.00 0.00 32 1017.3
20260503005249 78 250 0.9 1.7 0.00 0.00 0.00 35 1017.7
20260503004745 77 245 0.0 1.7 0.00 0.00 0.00 34 1017.5
20260503004243 76 250 1.7 2.6 0.00 0.00 0.00 34 1017.5
20260503003740 75 263 2.6 4.3 0.00 0.00 0.00 33 1017.5
20260503003237 75 261 2.6 5.2 0.00 0.00 0.00 33 1017.6
20260503002734 76 247 3.5 4.3 0.00 0.00 0.00 33 1017.6
20260503002231 75 286 1.7 4.3 0.00 0.00 0.00 34 1017.4
20260503001727 75 251 3.5 4.3 0.00 0.00 0.00 35 1017.5
20260503001223 75 241 3.5 5.2 0.00 0.00 0.00 33 1017.6
20260503000722 76 262 0.9 4.3 0.00 0.00 0.00 36 1017.6
20260503000219 75 230 0.9 1.7 0.00 0.00 0.00 39 1017.6
20260502235716 75 240 4.3 6.1 0.00 0.00 0.00 36 1017.8
20260502235214 77 205 1.7 4.3 0.00 0.00 0.00 35 1017.6
20260502234709 76 244 0.9 1.7 0.00 0.00 0.00 36 1017.7
20260502234207 75 233 2.6 4.3 0.00 0.00 0.00 36 1017.7
20260502233702 76 238 6.1 7.0 0.00 0.00 0.00 33 1018.0
20260502233159 75 232 3.5 4.3 0.00 0.00 0.00 34 1018.0
20260502232655 75 224 1.7 5.2 0.00 0.00 0.00 33 1018.0
20260502232153 75 267 2.6 4.3 0.00 0.00 0.00 33 1018.0
20260502231649 75 255 4.3 5.2 0.00 0.00 0.00 33 1018.1
20260502231147 75 253 3.5 4.3 0.00 0.00 0.00 33 1018.4